Location: El Bakhil
(32.7726°N, 5.5387°W)
Time: 01:01:17
(UTC+00:00)

ZACube-1 - Visible Passes

Search period start: 05 August 2021 00:00
Search period end: 15 August 2021 00:00
Orbit: 583 x 665 km, 97.6° (Epoch: 04 August)

Date Brightness Start Highest point End Pass type
(mag) Time Alt. Az. Time Alt. Az. Time Alt. Az.
05 Aug ? 04:06:10 10° NE 04:09:39 22° E 04:13:09 10° SE visible
06 Aug ? 04:24:12 10° NNE 04:28:21 35° E 04:32:31 10° SSE visible
07 Aug ? 04:42:31 10° NNE 04:47:00 60° E 04:51:30 10° S visible
08 Aug ? 05:01:04 10° N 05:05:37 81° WNW 05:10:11 10° SSW visible
09 Aug ? 03:45:52 10° ENE 03:47:47 12° E 03:49:42 10° ESE visible
10 Aug ? 04:03:08 10° NE 04:06:32 21° E 04:09:57 10° SE visible
11 Aug ? 04:21:07 10° NNE 04:25:14 34° E 04:29:22 10° SSE visible
12 Aug ? 04:39:25 10° NNE 04:43:54 56° E 04:48:23 10° S visible
13 Aug ? 04:57:56 10° N 05:02:31 86° W 05:07:05 10° SSW visible
14 Aug ? 03:43:03 10° ENE 03:44:40 12° E 03:46:15 10° ESE visible
14 Aug ? 05:16:39 10° N 05:21:05 51° WNW 05:25:31 10° SSW visible
